RH
69 72 72 68 69 72 72 70 62 62 60 58 57 59 60 66 64 64 71 68 71 76
64 63 63 62 63 67 63 57 60 58 57 57 57 58 60 65 64 63 66 69 70 70
62 59 61 64 66 63 60 60 59 59 58 56 55 55 59 63 62 60 66 61 65 68
60 60 59 60 63 61 62 60 59 58 56 56 54 55 56 57 55 58 60 62 63 66
59 58 59 59 60 61 62 61 56 54 53 53 54 53 54 56 57 54 56 59 62 63
64 65 64 64 61 56 56 55 52 52 52 50 52 51 51 52 50 50 54 58 60 62
66 66 67 64 61 59 56 54 51 47 44 46 44 45 47 47 51 54 55 63 65 64
66 65 62 61 58 55 50 44 42 39 40 40 38 35 43 50 57 63 65 66 62 59
62 57 53 45 41 39 38 35 35 36 40 46 34 47 56 57 66 64 64 65 57 56
54 47 43 36 35 37 38 39 40 42 43 44 44 49 52 60 56 62 63 64 62 55
41 38 37 38 40 41 44 44 45 46 47 49 44 55 58 61 57 63 66 63 60 60
40 40 40 41 43 45 48 49 50 48 50 53 50 54 58 58 48 50 56 53 54 55
43 43 44 46 48 49 50 49 50 49 50 51 47 48 55 55 47 64 53 51 54 57
44 45 46 48 52 52 51 50 53 50 48 50 46 44 52 55 52 55 53 53 52 56
Wind_Speed
9 6 6 5 6 5 4 4 4 5 5 4 3 3 4 3 3 4 3 5 4 3
7 9 9 8 7 5 5 4 6 5 5 4 4 5 4 3 4 4 3 4 4 2
7 8 8 8 7 7 6 6 6 6 5 4 5 5 5 4 4 4 3 3 5 4
7 7 7 8 6 6 6 6 6 6 5 4 4 4 4 4 3 4 5 5 4 6
8 7 6 6 7 6 6 6 6 5 4 3 3 2 2 4 3 3 5 6 6 7
7 8 7 7 6 7 6 6 5 4 3 1 2 2 3 4 3 4 5 6 6 7
8 7 6 6 6 6 6 5 4 2 1 2 3 4 5 5 4 5 5 6 6 7
7 7 7 6 6 6 5 3 2 1 3 4 4 3 5 5 6 5 6 7 7 8
7 7 6 6 5 5 3 2 1 3 4 6 4 9 11 10 5 6 6 7 8 7
7 6 6 5 5 3 1 1 3 5 5 7 7 14 15 15 6 6 7 7 7 7
6 6 5 4 2 0 1 2 4 6 7 6 8 16 17 18 9 7 8 7 8 7
6 5 4 2 1 2 2 4 5 6 7 7 9 16 16 15 9 7 9 8 7 7
5 5 3 3 4 3 3 5 5 7 7 9 9 16 20 18 9 7 9 7 8 15
5 4 3 4 3 5 6 6 6 7 7 7 10 11 21 22 11 7 8 7 7 6
Wind_Direction
172 142 122 135 128 122 132 131 119 96 87 70 56 48 37 25 8 32 24 5 347 313
106 116 122 119 111 118 121 118 95 91 87 69 53 53 35 34 18 18 11 347 351 318
125 112 115 114 118 117 121 98 101 87 74 63 55 40 42 22 1 18 352 346 340 327
120 120 113 112 120 119 107 113 102 98 90 77 59 30 31 0 7 4 345 328 326 309
117 107 102 103 109 112 111 102 103 97 87 72 50 28 355 329 335 343 327 313 316 299
107 108 112 104 104 98 100 103 98 98 84 20 331 314 302 294 265 302 299 294 299 298
114 118 117 116 116 109 111 106 106 96 21 315 302 280 296 286 269 283 285 294 292 291
123 121 120 119 117 110 101 96 90 3 323 308 292 289 272 264 267 271 279 281 281 280
121 121 124 119 105 93 78 45 317 300 289 299 293 274 286 291 266 263 258 264 273 280
133 126 124 115 105 120 196 293 307 301 292 282 275 285 288 283 272 251 252 257 265 280
129 130 126 121 128 314 312 288 291 285 278 271 279 285 283 280 273 261 250 251 257 259
137 136 133 131 280 269 273 271 263 264 277 272 270 277 289 294 290 281 270 261 257 254
141 138 161 228 251 248 248 256 260 260 248 264 289 300 299 296 288 274 274 267 253 263
145 170 214 255 253 256 258 254 263 277 288 285 287 291 290 290 287 269 272 262 267 256